Laramie, WY

6:35 PM MDT on September 27, 2016 (GMT -0600)
Laramie Regional

Weather History for KLAR - October, 2013

Change the Weather History Date:

Friday, October 18, 2013

  Actual Average Record
Temperature  
Mean Temperature 27 °F 41 °F  
Max Temperature 34 °F 55 °F 77 °F (1958)
Min Temperature 20 °F 28 °F 2 °F (2006)
Degree Days  
Heating Degree Days 38 24  
Month to date heating degree days 462 375  
Since 1 July heating degree days 786 900  
Cooling Degree Days 0 0  
Month to date cooling degree days 0 0  
Year to date cooling degree days 162 67  
Moisture  
Dew Point 21 °F    
Average Humidity 81    
Maximum Humidity 100    
Minimum Humidity 61    
Precipitation  
Precipitation T in 0.03 in 0.34 in (1993)
Month to date precipitation 1.09 0.50  
Year to date precipitation 10.47 9.76  
Sea Level Pressure  
Sea Level Pressure 30.15 in    
Wind  
Wind Speed 11 mph (NW)    
Max Wind Speed 24 mph    
Max Gust Speed 29 mph    
Visibility 9 miles    
Events Snow    
T = Trace of Precipitation, MM = Missing Value Source: NWS Daily Summary

Daily Weather History Graph

Daily Weather History Graph

Search for Another Location

Airport or City:

Trip Planner

Search our weather history database for the weather conditions in past years. The results will help you decide how hot, cold, wet, or windy it might be!

Date:

Astronomy

Oct. 18, 2013 Rise Set
Actual Time 7:18 AM MDT 6:16 PM MDT
Civil Twilight 6:50 AM MDT 6:44 PM MDT
Nautical Twilight 6:18 AM MDT 7:16 PM MDT
Astronomical Twilight 5:46 AM MDT 7:48 PM MDT
Moon 6:08 PM MDT (10/18) 6:56 AM MDT (10/18)
Length of Visible Light 11h 54m
Length of Day
10h 58m
Full, 100% of the Moon is Illuminated
Oct 18
Full
Oct 18
Full
Oct 26
Last Quarter
Nov 3
New
Nov 9
First Quarter

Hourly Weather History & Observations

Time (MDT) Temp. Windchill Dew Point Humidity Pressure Visibility Wind Dir Wind Speed Gust Speed Precip Events Conditions
12:06 AM 26.6 °F 20.0 °F 24.8 °F 93% 30.07 in 1.8 mi NNE 5.8 mph - 0.00 in Snow Light Snow
12:14 AM 26.6 °F 22.6 °F 24.8 °F 93% 30.08 in 2.5 mi NNE 3.5 mph - 0.00 in   Overcast
12:22 AM 26.6 °F 22.6 °F 24.8 °F 93% 30.08 in 3.0 mi NNE 3.5 mph - 0.00 in   Overcast
12:41 AM 24.8 °F 20.5 °F 23.0 °F 93% 30.07 in 5.0 mi North 3.5 mph - 0.00 in   Overcast
12:53 AM 25.0 °F 20.7 °F 23.0 °F 92% 30.07 in 2.5 mi North 3.5 mph - 0.00 in Snow Light Snow
1:10 AM 23.0 °F 18.4 °F 21.2 °F 93% 30.08 in 8.0 mi NW 3.5 mph - 0.00 in   Overcast
1:20 AM 24.8 °F 16.9 °F 23.0 °F 93% 30.08 in 10.0 mi NW 6.9 mph - 0.00 in   Overcast
1:53 AM 25.0 °F 17.1 °F 24.1 °F 96% 30.09 in 10.0 mi WNW 6.9 mph - 0.00 in   Overcast
2:06 AM 24.8 °F 17.9 °F 23.0 °F 93% 30.08 in 10.0 mi WNW 5.8 mph - N/A   Overcast
2:53 AM 23.0 °F - 23.0 °F 100% 30.10 in 10.0 mi Calm Calm - N/A   Overcast
3:53 AM 23.0 °F - 21.0 °F 92% 30.13 in 10.0 mi Calm Calm - N/A   Overcast
4:53 AM 25.0 °F 14.2 °F 19.9 °F 81% 30.13 in 10.0 mi NW 11.5 mph - N/A   Overcast
5:53 AM 24.1 °F 13.1 °F 19.0 °F 81% 30.16 in 10.0 mi WNW 11.5 mph - N/A   Mostly Cloudy
6:53 AM 21.0 °F 7.6 °F 16.0 °F 81% 30.19 in 10.0 mi WNW 15.0 mph - N/A   Partly Cloudy
7:53 AM 23.0 °F 11.1 °F 18.0 °F 81% 30.20 in 10.0 mi NW 12.7 mph - N/A   Overcast
8:53 AM 23.0 °F 13.9 °F 17.1 °F 78% 30.23 in 10.0 mi WNW 8.1 mph - N/A   Mostly Cloudy
9:26 AM 24.8 °F 15.3 °F 17.6 °F 74% 30.18 in 10.0 mi NW 9.2 mph - N/A   Mostly Cloudy
9:41 AM 24.8 °F 16.1 °F 19.4 °F 80% 30.18 in 10.0 mi NNW 8.1 mph - N/A   Scattered Clouds
9:53 AM 25.0 °F 16.3 °F 19.0 °F 78% 30.25 in 10.0 mi NNW 8.1 mph - N/A   Scattered Clouds
10:53 AM 27.0 °F 14.7 °F 19.0 °F 72% 30.24 in 10.0 mi NW 16.1 mph 25.3 mph N/A   Mostly Cloudy
11:53 AM 28.0 °F 14.9 °F 19.0 °F 69% 30.24 in 10.0 mi NW 19.6 mph - N/A   Partly Cloudy
12:53 PM 28.9 °F 15.8 °F 21.0 °F 72% 30.22 in 10.0 mi NNW 20.7 mph 25.3 mph N/A   Clear
1:53 PM 30.0 °F 18.7 °F 21.9 °F 72% 30.19 in 10.0 mi NNW 16.1 mph 24.2 mph N/A   Clear
2:53 PM 30.9 °F 18.4 °F 21.0 °F 67% 30.18 in 10.0 mi NW 20.7 mph - N/A   Clear
3:53 PM 32.0 °F 22.5 °F 21.0 °F 64% 30.16 in 10.0 mi NW 12.7 mph - N/A   Clear
4:53 PM 33.1 °F 24.9 °F 21.9 °F 64% 30.13 in 10.0 mi NNW 10.4 mph - N/A   Clear
5:53 PM 30.0 °F 21.7 °F 21.0 °F 69% 30.16 in 10.0 mi NNW 9.2 mph - N/A   Clear
6:53 PM 28.0 °F - 17.1 °F 63% 30.19 in 10.0 mi Calm Calm - N/A   Clear
7:53 PM 24.1 °F 14.4 °F 17.1 °F 75% 30.21 in 10.0 mi WSW 9.2 mph - N/A   Clear
8:53 PM 28.0 °F 20.0 °F 17.1 °F 63% 30.19 in 10.0 mi West 8.1 mph - N/A   Clear
9:53 PM 25.0 °F 16.3 °F 18.0 °F 75% 30.19 in 10.0 mi WSW 8.1 mph - N/A   Clear
10:53 PM 27.0 °F 16.7 °F 19.0 °F 72% 30.19 in 10.0 mi West 11.5 mph - N/A   Clear
11:53 PM 30.0 °F 20.0 °F 21.0 °F 69% 30.15 in 10.0 mi West 12.7 mph - N/A   Overcast